Starlink 31722

operational
NORAD ID: 59549 Int'l Des: 2024-074 Owner: SPXS Country: US Constellation: starlink
LEOCIRCULAR

About Starlink 31722

Description loading...

Live Position

Loading 3D Globe...

Upcoming Passes

Altitude History

Altitude vs Time

uPlot chart will show altitude changes over time

Two-Line Element Set

1 59549U 24074R 25304.51570873 -.00012696 00000-0 -45344-3 0 9998
2 59549 43.0070 352.6128 0000623 317.8663 42.2141 15.27523598 86263
Epoch: Oct 31, 2025 • Age: 10 hours

Current Status

Altitude 483.1 km
Velocity 7.63 km/s
Sub-Earth Point 21.44°N, 128.47°E
Launch Date Apr 18, 2024
Age 1.5 years
Type internet

Technical Details

Classification Payload
Mass 730.00 kg
Dry Mass 700.00 kg
Total Mass 730.00 kg
Length 0.30 m
Diameter 4.10 m
Span 29.00 m
Shape Box + pan
Manufacturer SPXS
Bus Type Starlink V2M
Phase Status In Orbit
Owner/State SPXS/US

Large Constellations

Loading constellations...